Racecast

Tasia King

Franklin (EG) (CA) · 11 · Compare head to head

Athlete rating 128.3 2015 TF season
Best race 132.4 TF
Races 119
Seasons 9 2009 — 2017

RankedNation #1014·CA #126·Team #3 ?

Rating scale ?

Cross Country

2017 XC

Franklin (EG) (CA) · Grade 11

Date Meet Event Result Place Rating Difficulty PR/SR Flags
2017-11-04 Calaveras County Fairgrounds 4828m +0.082
2017-10-28 Willow Hills Reservoir Course 4940m +0.078 ★PR ★CR SR CSR
2017-10-14 Willow Hills Reservoir Course 5000m 24:10.5 95th · 6th on team +0.060 CSR
2017-09-30 Haggin Oaks Golf Course 5000m 23:19.9 144th · 5th on team -0.006 ★CR CSR
2017-09-27 Cherry Island Soccer Complex 4828m 23:45.7 50th · 8th on team +0.019 ★PR ★CR SR CSR
2017-09-23 Elkhorn Golf Course 5000m 22:40.5 136th · 4th on team -0.002 ★CR SR CSR
2017-09-16 Calaveras County Fairgrounds 4828m 27:09 62nd · 5th on team +0.082 PR ★CR SR CSR
2017-09-02 Lagoon Valley Park 3218m 17:09 73rd · 4th on team +0.161 SR CSR
2017-08-25 Lodi Lake 5000m 26:37 75th · 4th on team +0.025 ★CR SR CSR

2016 XC

Pacific Racers Athletic Association (CA) · Grade 15-16

Date Meet Event Result Place Rating Difficulty PR/SR Flags
2016-10-15 Granite Park 3379m 17:11 4th · 3rd on team +0.027 ★PR ★CR SR CSR

2015 XC

Franklin (EG) (CA) · Grade 9

Date Meet Event Result Place Rating Difficulty PR/SR Flags
2015-11-07 Calaveras County Fairgrounds 3218m 15:32 53rd · 3rd on team +0.126 ★CR CSR
2015-10-31 Willow Hills Reservoir Course 3400m 15:07 19th · 2nd on team +0.094 ★PR ★CR SR CSR
2015-10-07 Granite Park 5000m 21:09 30th · 3rd on team +0.015 ★PR ★CR SR CSR
2015-09-26 Stanford University Golf Course 5000m 21:44.9 153rd · 2nd on team +0.019 PR ★CR SR CSR
2015-09-19 Willow Hills Reservoir Course 5000m 23:31 67th · 3rd on team +0.060 PR ★CR SR CSR
2015-09-05 Lagoon Valley Park 3218m 14:59 25th · 2nd on team +0.161 ★CR CSR
2015-08-28 Lodi Lake 3218m 13:12 2nd · 2nd on team +0.015 ★PR ★CR SR CSR

2013 XC 115.4

Pacific Racers Athletic Association (CA) · Grade 11-12

Date Meet Event Result Place Rating Difficulty PR/SR Flags
2013-10-19 Granite Park 2414m 9:53 8th · 3rd on team 112.2 -0.041 ★PR ★CR SR CSR
2013-09-21 Willow Hills Reservoir Course 2414m 10:23 6th · 2nd on team 118.6 +0.093 PR ★CR SR CSR RSR

2012 XC 105.8

Pacific Racers Athletic Association (CA) · Grade 12

Date Meet Event Result Place Rating Difficulty PR/SR Flags
2012-10-06 Granite Park 2253m 9:36 9th · 2nd on team 105.3 -0.053 ★PR ★CR SR CSR
2012-09-15 Willow Hills Reservoir Course 2414m 11:57 20th · 3rd on team 106.4 +0.093 CR SR CSR RSR

2011 XC 99.7

Pacific Racers Athletic Association (CA) · Grade 7

Date Meet Event Result Place Rating Difficulty PR/SR Flags
2011-10-22 Granite Park 2414m 11:19 4th · 1st on team 100.2 -0.041 PR CR R SR CSR RSR
2011-10-15 Willow Hills Reservoir Course 2800m 13:42.3 39th · 8th on team 99.2 -0.023 ★PR ★CR R SR CSR RSR

Track & Field

2017 TF

Franklin (EG) (CA) · Grade 10

Date Meet Event Result Place Rating Difficulty PR/SR Flags
2017-05-12 Delta League Championships Finals 200m 30.46 30th · 2nd on team -0.034
2017-05-12 Delta League Championships Finals 400m 1:10.31 19th · 3rd on team -0.034
2017-05-05 Delta League Championships Trials 200m 30.46 23rd · 2nd on team -0.034 SR
2017-05-05 Delta League Championships Trials 400m 1:10.31 12th · 2nd on team -0.034 SR
2017-04-22 GLENN POOLE INVITATIONAL 200m 30.98 31st · 3rd on team -0.033
2017-03-25 Mark Macres Invitational 400m 1:11.34 16th · 2nd on team -0.032
2017-03-25 Mark Macres Invitational 200m 30.89 29th · 2nd on team -0.032 SR
2017-03-22 Delta: Franklin, Sheldon vs MTHS 200m 31.34 7th · 2nd on team -0.032 SR
2017-03-18 Jaguar Invitational 400m 1:11.19 10th · 2nd on team -0.033
2017-02-25 Capital Classic Relays 400m 1:10.98 6th · 1st on team -0.030 SR

2016 TF

Franklin (EG) (CA) · Grade 9

Date Meet Event Result Place Rating Difficulty PR/SR Flags
2016-05-13 Delta League Varsity & F/S Finals 800m 2:34.91 1st · 1st on team -0.042 SR
2016-05-13 Delta League Varsity & F/S Finals 800m 2:37.15 4th · 2nd on team -0.042
2016-05-13 Delta League Varsity & F/S Finals 400m 1:05.47 10th · 5th on team -0.042
2016-05-13 Delta League Varsity & F/S Finals 400m 1:05.76 11th · 6th on team -0.042
2016-05-06 Delta League Varsity & F/S Trials 800m 2:37.15 3rd · 1st on team -0.042
2016-05-06 Delta League Varsity & F/S Trials 400m 1:05.47 5th · 3rd on team -0.042 PR SR
2016-04-23 Glenn Poole Invitational 800m 2:37.64 16th · 2nd on team -0.033
2016-04-20 Delta: Franklin, PlGrove v. Jes/St. Fran shot 16-07.00 -0.032
2016-04-20 Delta: Franklin, PlGrove v. Jes/St. Fran 400m 1:06.66 3rd · 1st on team -0.032 SR
2016-04-20 Delta: Franklin, PlGrove v. Jes/St. Fran 800m 2:36.54 2nd · 1st on team -0.032 SR
2016-04-07 Delta: Franklin, MTHS vs PGHS 200m 30.99 6th · 2nd on team -0.032
2016-04-07 Delta: Franklin, MTHS vs PGHS 400m 1:07.38 1st · 1st on team -0.032
2016-03-30 Delta: Franklin, Sheldon vs MTHS 200m 29.7 7th · 5th on team -0.032 ★PR SR
2016-03-30 Delta: Franklin, Sheldon vs MTHS 100m 14.68 8th · 4th on team -0.032
2016-03-26 38th Annual Aztec Track and Field Invitational (Main Meet) 200m 29.89 23rd · 1st on team -0.039 PR SR
2016-03-19 Jaguar Invitational 800m 2:37.21 3rd · 1st on team -0.033 SR
2016-03-19 Jaguar Invitational 400m 1:07.37 7th · 1st on team -0.033
2016-03-16 Delta League Elk Grove, Davis, Franklin 100m 14.64 13th · 8th on team -0.042 ★PR SR
2016-03-16 Delta League Elk Grove, Davis, Franklin 200m 29.93 7th · 7th on team -0.042 PR SR
2016-03-12 Port City Invitational 400m 1:07.34 5th · 1st on team -0.040 SR
2016-03-12 Port City Invitational 800m 2:47.46 11th · 1st on team -0.040
2016-02-27 Capital Classic Relays 800m 2:38.26 5th · 1st on team -0.030 SR
2016-02-27 Capital Classic Relays 400m 1:07.52 3rd · 1st on team -0.030 SR

2015 TF 127.0

Pacific Racers Athletic Association (CA) · Grade 13-14

Date Meet Event Result Place Rating Difficulty PR/SR Flags
2015-05-01 Sheldon Distance Carnival 1600m 5:57.5 9th · 1st on team 124.2 -0.042
2015-05-01 Sheldon Distance Carnival 800m 2:34.2 6th · 1st on team 128.3 -0.042 ★PR SR
2015-04-18 JFK Cougar Middle School Invitational 800m 2:39 1st · 1st on team 125.5 -0.033
2015-04-18 JFK Cougar Middle School Invitational 1600m 5:38 1st · 1st on team 132.4 -0.033 ★PR ★R SR RSR
2015-04-04 Sacramento Speed Factory 800m 2:35.19 11th · 1st on team 127.4 -0.042 PR R SR RSR
2015-03-21 RPM Legacy 800m 2:40.9 2nd · 1st on team 124.4 -0.030 R SR RSR
2015-03-21 RPM Legacy 400m 1:06.38 20th · 1st on team -0.030 PR SR

2014 TF 118.8

Pacific Racers Athletic Association (CA) · Grade 13-14

Date Meet Event Result Place Rating Difficulty PR/SR Flags
2014-06-20 USATF Pacific Assoc. Junior Olympics (Top 8) 1500m 5:13.56 9th · 3rd on team 121.7 -0.038 RSR
2014-05-24 Central Valley Roadrunners 1500m 5:12.9 4th · 2nd on team 121.7 -0.043 SR RSR
2014-05-02 Sheldon Distance Carnival 800m 2:39.4 9th · 6th on team 113.8 -0.042
2014-05-02 Sheldon Distance Carnival 1600m 5:41 8th · 4th on team 120.0 -0.042 SR
2014-04-25 Frosh-Soph Future Stars 1600m 5:43.16 3rd · 2nd on team 121.4 -0.024 SR RSR
2014-04-25 Frosh-Soph Future Stars 800m 2:39.95 4th · 3rd on team 115.9 -0.024
2014-04-05 Sacramento Speed Showcase 1500m 5:13.97 6th · 3rd on team 121.1 -0.042 SR RSR
2014-04-05 Sacramento Speed Showcase 800m 2:37.39 10th · 5th on team 115.2 -0.042 PR SR

2013 TF 116.7

Pacific Racers Athletic Association (CA) · Grade 11-12

Date Meet Event Result Place Rating Difficulty PR/SR Flags
2013-07-12 Track City Classic 800m 2:39.39 9th · 3rd on team 113.7 -0.039 PR SR
2013-07-12 Track City Classic 1500m 5:17.28 8th · 3rd on team 119.6 -0.039
2013-07-12 Track City Classic 3000m 11:18.83 4th · 1st on team 120.2 -0.039
2013-06-21 Pacific Association Junior Olympics (3-day) 3000m 11:18.83 6th · 1st on team 120.8 -0.034 PR SR
2013-06-21 Pacific Association Junior Olympics (3-day) 1500m 5:09.86 11th · 3rd on team 123.1 -0.034 ★PR R SR RSR
2013-06-08 Pacific Association Youth Championship (PAC) - 2-day meet 3000m 11:46.16 5th · 1st on team 116.8 -0.032 SR
2013-06-08 Pacific Association Youth Championship (PAC) - 2-day meet 1500m 5:23.54 11th · 3rd on team 118.4 -0.032 PR SR
2013-05-25 Central Valley Roadrunners (2-day meet) 1500m 5:24.3 6th · 3rd on team 116.4 -0.043 PR SR
2013-05-02 Metro MS Meet #5 400m 1:12 6th · 3rd on team -0.033 PR SR
2013-05-02 Metro MS Meet #5 800m 2:43.3 2nd · 2nd on team 111.9 -0.033
2013-04-26 Frosh/Soph Future Stars Invitational 800m 2:42.25 6th · 3rd on team 113.6 -0.024
2013-04-26 Frosh/Soph Future Stars Invitational 1600m 5:54.99 2nd · 2nd on team 117.2 -0.024
2013-04-18 Metro MS Meet #3 1600m 5:39.31 2nd · 2nd on team 121.2 -0.033 PR R SR RSR
2013-04-18 Metro MS Meet #3 3200m 12:14.9 1st · 1st on team 120.1 -0.033 ★PR SR
2013-04-06 Sacramento Speed Showcase 800m 2:40.66 8th · 3rd on team 112.5 -0.042 PR SR RSR
2013-04-06 Sacramento Speed Showcase 1500m 5:26.16 3rd · 1st on team 115.9 -0.042 SR RSR
2013-03-23 Welton "Moe" Moore Relays 800m 2:53.3 6th · 4th on team 106.2 -0.028 SR RSR

2012 TF 114.1

Pacific Racers Athletic Association (CA) · Grade 11

Date Meet Event Result Place Rating Difficulty PR/SR Flags
2012-06-09 Pacific Association Youth Championships 1500m 5:30 5th · 1st on team 115.7 -0.034
2012-06-09 Pacific Association Youth Championships 3000m 11:29.37 4th · 2nd on team 119.5 -0.034 PR SR
2012-05-26 Central Valley Roadrunners Track Club 1500m 5:25.45 5th · 3rd on team 116.8 -0.036 PR SR
2012-05-05 Hercules Running Rebels / Top Pacers Invitational 3000m 11:37.57 2nd · 1st on team 116.3 -0.047 PR SR
2012-05-03 Metro MS Meet 5 3200m 12:21.35 2nd · 2nd on team 118.0 -0.033 PR SR
2012-05-03 Metro MS Meet 5 800m 2:43.54 4th · 3rd on team 111.7 -0.033
2012-04-27 Frosh Soph Future Stars 800m 2:45.53 5th · 3rd on team 111.1 -0.024
2012-04-27 Frosh Soph Future Stars 1600m 5:57.22 6th · 3rd on team 116.0 -0.024
2012-04-13 Bronco Roundup Distance Carnival 1600m 5:44.59 12th · 2nd on team 118.0 -0.042
2012-04-13 Bronco Roundup Distance Carnival 800m 2:44.88 19th · 6th on team 109.7 -0.042
2012-03-29 Metro MS Meet 2 800m 2:41.5 3rd · 1st on team 112.8 -0.033 PR SR
2012-03-29 Metro MS Meet 2 1600m 5:40.6 1st · 1st on team 120.3 -0.033 PR R SR RSR
2012-03-17 Welton "Moe" Moore Relays 300mh 58.86 5th · 1st on team -0.028 ★PR SR
2012-03-16 Oak Ridge Trojan Track & Field Invitational 1600m 6:08.06 10th · 2nd on team 113.1 -0.024 PR R SR RSR
2012-01-21 Run for the Dream 1600m 6:20.67 6th · 3rd on team 108.5 -0.026 PR R SR RSR
2012-01-21 Run for the Dream 800m 2:56.57 10th · 3rd on team 103.8 -0.026 PR SR

2011 TF

Pacific Racers Athletic Association (CA) · Grade 9-10

Date Meet Event Result Place Rating Difficulty PR/SR Flags
2011-06-11 PA USATF Youth Championships (PAC) 100m 17.39 50th · 4th on team -0.040
2011-05-21 Hercules Running Rebels & Top Pacers Track Club Invitational 200m 35.72 37th · 3rd on team -0.047
2011-05-21 Hercules Running Rebels & Top Pacers Track Club Invitational 100m 17.03 46th · 1st on team -0.047
2011-04-30 Tommie Smith Youth Track Meet 100m 16.82 41st · 1st on team -0.041 PR SR
2011-04-30 Tommie Smith Youth Track Meet 200m 35.4 22nd · 1st on team -0.041 PR SR

2010 TF

Pacific Racers Athletic Association (CA) · Grade 9

Date Meet Event Result Place Rating Difficulty PR/SR Flags
2010-05-01 UMOJA 100m 17.6 45th · 1st on team -0.027 PR SR
2010-05-01 UMOJA 200m 36.68 45th · 2nd on team -0.027 PR SR
2010-04-17 Roseville PAL Express Track Club 200m 37.55 24th · 2nd on team -0.032 PR SR
2010-04-17 Roseville PAL Express Track Club 400m 1:31.67 16th · 1st on team -0.032 PR SR
2010-03-27 Race results → 100m 17.7 28th · 3rd on team PR SR
2010-03-27 Race results → 200m 39 30th · 4th on team SR

2009 TF

Pacific Racers Athletic Association (CA) · Grade 9

Date Meet Event Result Place Rating Difficulty PR/SR Flags
2009-05-30 Central Valley Roadrunners 100m 18.03 13th · 3rd on team -0.035 PR SR
2009-05-30 Central Valley Roadrunners 200m 38.96 10th · 2nd on team -0.035 PR SR
2009-05-16 3M Track Club 200m 39.93 32nd · 4th on team -0.040 PR SR
2009-05-16 3M Track Club 100m 19.12 36th · 3rd on team -0.040 PR SR